This demonstration page uses our WeatherBlox Daily Observations layout. Learn more.

Left ArrowRight Arrow

53.62937, 11.41316

Hourly Observations for May 12, 2016

Temp ( °F °C ) Dew Point ( °F °C ) Humidity (%) Winds ( mph kmh ) Pressure ( in mb ) Visibility ( mi km ) Precip ( " mm )
6:20 am 06:20 Mostly Sunny 52 11 48 9 88 88 ENE 13 20 29.77 1008 7 11 N/A
6:50 am 06:50 Mostly Sunny 52 11 50 10 94 94 ENE 13 20 29.77 1008 7 11 N/A
7:20 am 07:20 Mostly Sunny 54 12 50 10 88 88 ENE 16 26 29.77 1008 7 11 N/A
7:50 am 07:50 Mostly Sunny 55 13 50 10 82 82 ENE 16 26 29.77 1008 7 11 N/A
8:20 am 08:20 Mostly Sunny 57 14 50 10 77 77 ENE 16 26 29.77 1008 7 11 N/A
8:50 am 08:50 Mostly Sunny 59 15 50 10 72 72 ENE 16 26 29.77 1008 7 11 N/A
9:20 am 09:20 Mostly Sunny 61 16 50 10 68 68 ENE 15 24 29.74 1007 7 11 N/A
9:50 am 09:50 Mostly Sunny 63 17 50 10 64 64 ENE 15 24 29.74 1007 7 11 N/A
10:20 am 10:20 Mostly Sunny 64 18 50 10 60 60 ENE 13 20 29.74 1007 7 11 N/A
10:50 am 10:50 Mostly Sunny 68 20 52 11 56 56 ENE 16 26 29.74 1007 7 11 N/A
11:20 am 11:20 Mostly Sunny 68 20 50 10 53 53 ENE 17 28 29.74 1007 7 11 N/A
11:50 am 11:50 Mostly Sunny 70 21 48 9 46 46 E 20 31 29.71 1006 7 11 N/A
12:20 pm 12:20 Mostly Sunny 72 22 48 9 44 44 ENE 18 30 29.71 1006 7 11 N/A
12:50 pm 12:50 Mostly Sunny 72 22 45 7 38 38 ENE 21 33 29.71 1006 7 11 N/A
1:00 pm 13:00 Mostly Sunny 73 23 46 8 38 38 ENE 18 30 29.71 1006 7 11 N/A
1:20 pm 13:20 Mostly Sunny 72 22 46 8 41 41 ENE 20 31 29.68 1005 7 11 N/A
1:50 pm 13:50 Mostly Sunny 72 22 46 8 41 41 NE 17 28 29.68 1005 7 11 N/A
2:20 pm 14:20 Mostly Sunny 72 22 50 10 47 47 NE 18 30 29.68 1005 7 11 N/A
2:52 pm 14:52 Mostly Sunny 73 23 50 10 44 44 ENE 20 31 29.68 1005 7 11 N/A
3:20 pm 15:20 Mostly Sunny 73 23 48 9 41 41 NE 17 28 29.65 1004 7 11 N/A
3:50 pm 15:50 Mostly Sunny 72 22 48 9 44 44 NE 17 28 29.65 1004 7 11 N/A
4:20 pm 16:20 Mostly Sunny 72 22 48 9 44 44 ENE 17 28 29.65 1004 7 11 N/A
4:50 pm 16:50 Mostly Sunny 72 22 48 9 44 44 NE 18 30 29.65 1004 7 11 N/A
5:20 pm 17:20 Mostly Sunny 72 22 48 9 44 44 NE 17 28 29.65 1004 7 11 N/A
5:50 pm 17:50 Mostly Sunny 70 21 48 9 46 46 NE 20 31 29.65 1004 7 11 N/A
6:20 pm 18:20 Mostly Sunny 68 20 48 9 49 49 NE 21 33 29.65 1004 7 11 N/A
6:50 pm 18:50 Mostly Sunny 66 19 45 7 46 46 NE 17 28 29.62 1003 7 11 N/A

Powered by AerisWeather